Temperature
21 21 21 21 19 18 19 21 21 21 22 22 21 20 19 19 19 18 18 18 18 18 18 18 17 17 18 18 18 17 17 17 17 17 17 17 17 17 17 17 17 17 17 17 17 17 17 17 17
21 21 21 20 18 18 20 21 21 22 22 22 21 20 19 18 18 18 17 17 18 18 18 18 18 17 17 17 17 17 17 17 17 17 17 17 17 17 17 17 17 17 17 17 17 17 17 17 17
21 21 21 18 19 19 20 21 21 22 23 22 21 20 19 18 18 18 18 18 18 18 18 18 18 17 17 17 17 17 17 17 17 17 17 17 17 17 17 17 17 17 17 17 17 17 17 17 17
22 21 21 18 20 20 20 21 21 22 22 22 20 19 19 19 18 18 18 18 18 18 18 17 17 17 17 17 17 17 17 17 17 17 17 17 17 17 17 17 17 17 17 17 17 17 17 17 17
22 21 19 19 20 21 21 21 22 22 22 21 20 18 18 18 18 18 18 18 18 18 17 17 17 17 17 17 17 17 17 17 17 17 17 17 17 17 17 17 16 16 16 16 16 17 16 16 17
22 19 18 19 20 21 21 22 22 21 21 20 19 18 18 18 18 18 18 18 18 18 17 17 17 17 17 17 17 17 17 17 17 17 17 17 17 17 17 16 16 16 16 16 16 16 16 16 16
21 18 19 20 20 21 22 22 22 21 21 21 20 18 17 18 18 18 18 18 18 17 17 17 17 17 17 17 17 17 17 17 16 16 16 16 16 16 16 16 16 16 16 16 16 16 16 16 16
22 18 19 19 20 21 22 23 22 22 21 21 20 18 18 18 18 18 18 18 18 17 17 17 17 17 17 17 17 17 17 16 16 16 16 16 16 16 16 16 16 16 16 16 16 16 16 16 16
23 18 19 20 20 21 22 22 22 22 21 21 20 20 19 18 18 18 18 18 17 17 17 17 17 17 17 17 17 17 16 16 16 16 16 16 16 16 16 16 16 16 16 16 15 15 15 15 16
22 18 20 21 21 21 22 22 22 21 20 19 19 19 19 18 18 18 18 18 18 17 17 17 17 17 17 17 16 16 16 16 16 16 16 16 16 16 16 16 16 16 15 15 15 15 15 15 16
21 20 21 22 22 22 22 22 21 20 19 19 19 19 19 18 18 18 18 18 18 18 17 17 17 17 17 17 16 16 16 16 16 16 16 16 16 16 15 15 15 15 15 15 15 15 15 15 15
21 21 22 22 23 22 22 22 21 21 20 20 20 20 19 19 18 18 18 18 18 17 17 17 17 17 17 17 16 16 16 16 16 16 16 16 16 15 15 15 15 15 15 15 15 15 15 15 15
21 21 22 23 23 22 22 21 21 20 20 20 20 19 19 19 19 19 18 18 18 18 17 17 17 17 17 17 16 16 16 16 16 16 16 16 15 15 15 15 15 15 15 15 15 15 15 15 15
22 22 22 22 22 22 21 21 20 20 20 20 19 19 19 19 19 18 18 18 18 18 18 17 17 17 17 17 16 16 16 16 16 16 15 15 15 15 15 15 15 15 15 15 15 15 15 15 15
23 21 21 21 22 22 21 19 19 20 20 19 19 19 19 19 19 19 18 18 18 18 18 17 17 17 17 17 16 16 16 16 16 16 15 15 15 15 15 15 15 15 15 15 15 15 15 15 15
21 20 19 20 21 21 20 19 19 20 19 18 18 19 19 19 19 19 18 18 18 18 18 17 17 17 17 16 16 16 16 16 16 16 16 15 15 15 15 15 15 15 15 15 15 15 15 15 15
19 19 19 20 21 21 20 19 19 19 19 18 18 18 18 18 18 18 18 18 18 18 18 17 17 17 17 17 16 16 16 16 16 16 15 15 15 15 15 15 15 15 15 15 15 15 15 15 14
19 19 19 19 20 20 19 18 18 19 19 18 18 18 18 18 18 18 18 18 18 18 18 17 17 17 17 16 16 16 16 16 16 16 15 15 15 15 15 15 15 15 15 15 14 14 14 14 14
20 20 19 20 20 20 19 18 18 19 18 18 18 18 18 18 18 18 18 18 18 18 18 17 17 17 17 16 16 16 16 16 16 15 15 15 15 15 15 15 15 15 15 15 14 14 14 14 14
20 20 19 20 20 20 19 18 18 18 18 18 18 18 18 18 18 18 18 18 18 18 18 17 17 17 17 16 16 16 16 15 15 15 15 15 15 15 15 15 15 15 15 14 14 14 14 14 14
20 20 20 19 19 19 19 17 17 18 18 18 18 18 18 18 18 18 18 18 18 17 17 17 17 17 17 16 16 16 15 15 15 15 15 15 15 15 15 15 15 15 15 14 14 14 14 14 14
19 20 20 20 18 17 18 16 17 17 17 17 17 17 17 17 18 17 17 17 17 17 17 17 17 16 16 16 16 16 16 15 15 15 15 15 15 15 15 15 15 14 14 14 14 14 14 14 14
20 21 20 20 18 17 17 16 16 16 16 16 16 17 17 17 17 17 17 17 17 17 17 17 17 16 16 16 16 16 16 15 15 15 15 15 15 15 15 15 14 14 14 14 14 14 14 14 14
21 19 18 16 16 17 17 16 16 15 16 16 16 16 17 17 17 17 17 17 17 17 17 16 16 16 16 16 16 16 16 15 15 15 15 15 15 15 14 14 14 14 14 14 14 14 14 14 14
19 17 16 16 15 16 17 16 16 16 17 17 16 16 16 17 17 17 17 17 17 16 16 16 16 16 16 16 16 15 15 15 15 15 15 15 15 15 14 14 14 14 14 14 14 14 14 14 14
19 17 16 16 16 16 17 16 16 17 17 17 17 17 17 16 16 16 16 16 16 16 16 16 16 16 16 15 15 15 15 15 15 15 15 15 15 15 14 14 14 14 14 14 14 14 14 14 14
19 17 17 16 17 16 16 16 17 17 17 17 17 16 16 16 16 16 16 16 16 16 16 16 16 15 15 15 15 15 15 15 15 15 15 15 15 15 14 14 14 14 14 14 14 14 14 14 14
19 18 15 16 16 16 16 16 15 16 16 16 16 16 16 16 16 16 16 16 16 16 16 16 16 15 15 15 15 15 15 15 15 15 15 14 15 15 15 14 14 14 14 14 14 14 14 14 13
19 18 16 15 15 15 15 15 17 16 16 16 16 16 16 16 16 16 16 16 16 16 16 16 15 15 15 15 15 15 15 15 15 14 14 14 14 14 14 14 14 14 14 13 13 13 13 13 13
19 18 16 15 15 14 14 15 17 16 16 16 16 16 16 16 16 16 16 16 15 15 15 15 15 15 15 15 15 14 14 14 14 14 14 14 14 14 14 14 14 14 13 13 13 13 13 13 13
Wind_Speed
3 1 3 3 4 5 2 0 3 3 4 5 8 11 9 6 4 4 3 6 8 6 6 7 7 8 8 9 10 11 11 11 11 11 11 11 11 11 11 11 11 12 12 11 11 11 11 11 12
1 1 3 4 5 3 1 1 5 4 6 7 8 8 8 5 4 6 3 7 8 7 7 7 8 9 9 10 12 12 12 11 11 11 11 11 11 11 11 11 11 12 12 12 11 11 11 11 11
1 0 3 4 3 3 2 2 5 5 6 5 5 6 5 4 4 4 5 8 8 7 7 7 9 9 9 10 11 12 12 11 11 10 10 10 11 12 12 11 11 12 11 11 12 12 12 12 12
2 4 4 4 3 2 4 3 4 6 5 6 6 6 4 3 4 6 9 10 9 6 6 8 9 9 10 10 11 11 11 11 11 11 11 11 12 12 12 11 11 12 12 12 12 12 11 12 12
3 4 5 3 2 1 2 4 4 6 4 5 8 6 4 3 7 10 10 9 9 6 6 8 10 10 10 11 11 11 11 11 11 11 12 13 13 12 12 12 12 12 12 12 12 13 12 12 12
4 4 4 2 1 1 1 3 6 7 5 6 8 6 3 3 7 8 9 9 9 8 7 8 10 10 10 10 10 10 11 11 11 12 13 13 13 12 12 12 11 11 11 11 11 12 12 13 13
4 4 2 2 2 1 1 2 5 6 5 4 6 6 4 3 6 8 8 8 8 8 7 6 7 8 9 9 9 10 10 11 11 11 12 12 12 11 12 11 11 11 11 10 10 11 11 12 13
5 4 2 1 3 1 1 3 4 5 4 4 5 8 6 6 6 7 7 7 7 6 5 5 6 6 6 7 8 9 9 9 10 10 10 10 11 10 10 10 10 10 10 10 10 10 11 12 13
4 4 1 2 4 2 1 4 3 4 6 4 3 5 7 10 8 8 6 5 6 6 5 5 5 5 5 5 6 7 7 7 8 7 8 8 7 7 7 8 9 9 9 9 9 10 11 12 13
5 3 3 3 4 4 2 4 4 5 6 4 5 6 9 10 9 9 8 7 6 6 6 5 5 5 5 5 5 4 4 4 4 4 5 5 5 5 6 6 7 8 8 8 9 10 10 10 9
4 5 3 2 4 5 4 3 3 7 4 4 7 10 11 9 8 8 8 7 7 7 6 6 5 5 5 4 5 3 3 3 4 5 6 6 5 4 5 5 6 7 8 7 8 8 8 8 8
3 2 3 3 4 4 4 3 4 4 5 7 10 12 11 10 9 8 8 7 6 6 6 6 6 5 5 5 4 3 3 2 2 3 6 6 4 3 3 3 4 5 5 6 6 6 8 9 9
3 2 2 3 4 5 6 4 4 3 6 7 10 11 10 9 8 7 7 6 6 6 6 6 6 6 5 4 3 4 3 3 3 3 4 7 4 3 3 3 3 4 5 5 5 6 7 7 7
3 3 2 2 3 3 6 3 4 3 6 8 9 9 9 8 7 6 6 6 6 6 6 6 7 6 6 4 3 3 4 4 4 4 5 6 6 5 4 3 3 3 4 6 6 6 6 5 5
3 4 3 1 1 2 6 4 1 3 7 7 7 7 7 6 6 7 8 7 7 6 6 6 6 6 6 5 4 4 4 4 3 4 6 7 7 7 5 3 3 3 5 6 6 6 6 5 5
3 3 1 4 1 1 5 2 3 4 8 7 5 5 5 5 6 7 7 7 6 5 5 5 5 5 5 5 4 4 4 4 3 4 6 7 8 8 6 4 3 4 6 5 4 4 4 4 4
2 0 2 4 2 2 4 3 3 3 6 6 5 4 5 4 3 5 6 7 6 6 6 5 5 5 5 5 4 4 4 4 3 5 5 6 7 8 7 4 4 5 5 3 4 3 3 3 3
2 1 1 2 2 3 3 2 2 3 5 5 4 4 4 4 4 4 4 5 6 6 6 5 4 4 5 4 3 3 3 2 3 4 4 6 6 7 7 4 5 5 4 3 3 4 3 2 2
3 2 1 3 2 2 2 2 3 3 4 4 4 3 4 4 2 2 3 4 4 5 6 5 5 4 5 3 3 3 2 1 1 2 4 5 6 7 6 4 4 4 3 3 4 3 3 2 2
3 2 0 2 0 2 2 2 3 3 5 6 6 5 4 3 2 3 3 3 4 6 6 5 5 5 5 4 3 3 3 2 1 1 3 4 5 6 6 5 4 4 4 4 3 3 2 1 1
1 3 3 3 2 2 2 3 3 2 1 2 4 4 4 5 5 4 4 4 3 4 5 5 5 5 4 4 3 3 3 2 2 1 1 1 3 4 5 5 4 4 3 3 3 3 4 2 0
3 4 3 2 1 2 1 1 5 3 0 1 2 3 4 5 5 4 4 3 3 3 4 5 5 4 4 4 5 5 4 3 3 2 2 1 2 4 4 5 5 4 3 3 3 3 3 3 1
4 3 2 1 1 1 1 2 5 1 2 4 3 3 3 4 5 5 4 4 3 3 3 4 5 5 4 5 6 6 5 3 2 2 2 2 1 2 3 4 4 3 3 3 2 2 3 3 3
2 4 5 5 4 1 4 4 4 3 5 4 4 4 4 4 4 4 3 2 2 2 2 2 3 3 3 4 5 6 7 5 4 3 3 2 1 1 2 3 3 3 3 3 2 2 3 3 2
5 5 3 4 3 4 1 3 4 5 5 6 7 6 5 5 5 4 3 3 2 3 2 2 3 2 2 3 4 5 6 6 6 5 4 3 2 2 3 3 3 2 2 3 3 2 2 2 2
2 7 5 3 3 3 2 2 4 2 2 3 5 6 6 5 5 4 4 4 4 4 3 3 3 2 2 2 2 3 4 4 4 4 4 4 4 4 4 4 4 3 3 3 3 2 2 2 2
2 3 6 5 2 1 2 1 3 2 2 3 5 6 6 5 5 4 4 4 4 4 4 4 3 2 2 2 1 2 2 4 4 4 4 3 3 3 4 4 3 3 3 3 3 2 2 2 2
4 5 4 3 2 1 2 2 3 4 3 3 4 6 6 6 5 4 4 4 3 4 3 3 3 3 2 2 2 2 1 2 3 3 3 3 4 3 4 4 4 3 2 2 2 2 2 2 1
0 1 3 3 4 4 2 4 3 7 6 6 6 6 6 7 6 5 4 4 4 3 3 3 2 2 2 2 2 1 1 1 2 2 2 2 3 3 4 4 4 3 3 2 2 2 2 2 2
4 3 5 3 2 3 3 5 3 4 4 5 5 5 5 6 5 5 5 4 3 2 2 2 2 2 1 2 2 2 2 2 2 1 1 2 2 3 4 4 4 4 3 3 3 3 2 3 2
Wind_Direction
286 347 97 68 58 56 51 345 129 70 57 59 76 86 88 73 89 134 178 143 136 138 133 121 110 101 95 94 98 101 99 94 89 85 85 85 84 82 80 80 80 80 79 78 78 78 79 78 77
343 87 78 63 79 74 6 175 107 100 133 119 84 81 81 74 84 113 124 141 135 135 129 121 112 102 98 94 94 97 95 91 89 86 85 87 88 88 85 83 83 81 79 79 80 80 81 78 77
322 126 86 71 92 143 164 194 131 110 114 101 79 59 79 109 113 128 148 140 125 123 125 127 115 104 100 97 94 93 92 89 86 84 86 90 91 89 86 84 83 81 79 78 79 78 78 78 76
67 46 55 74 93 163 164 189 146 106 75 72 98 73 62 87 130 135 136 130 122 117 123 126 117 108 104 100 98 96 94 90 86 82 87 94 94 91 88 85 82 81 79 78 79 77 76 78 78
72 74 58 56 83 110 147 162 138 104 89 90 98 93 68 34 111 127 131 128 126 126 124 124 118 114 108 104 103 100 98 94 90 84 89 95 96 93 88 85 85 83 80 79 81 75 73 75 77
57 66 76 85 77 50 94 134 106 97 100 107 104 110 110 115 119 133 133 132 134 135 129 126 123 117 113 109 108 105 102 101 95 90 89 92 95 95 92 90 89 87 84 81 80 78 77 74 72
110 96 116 135 117 76 150 128 110 117 112 120 123 108 133 158 143 139 134 133 132 130 129 129 129 123 119 115 111 109 107 105 100 97 95 94 95 95 94 93 91 88 86 83 81 78 78 78 75
131 104 79 121 137 169 163 103 111 111 110 112 112 132 162 192 153 130 125 130 133 133 137 138 134 127 123 122 118 115 112 107 103 102 99 97 97 97 95 91 89 86 83 79 79 77 78 79 76
103 87 131 189 160 171 117 93 67 71 87 69 77 138 157 154 137 122 118 117 134 141 151 150 143 140 138 133 126 121 115 112 108 108 106 98 98 99 97 92 87 85 81 75 73 73 76 76 76
104 130 198 190 156 136 105 103 110 87 83 81 83 98 128 140 140 141 144 145 150 156 164 165 159 155 157 147 130 127 118 117 118 121 118 116 110 104 98 88 84 80 76 73 69 67 71 70 72
137 163 181 149 143 124 107 88 89 114 110 158 152 146 144 146 149 153 157 158 165 167 163 168 166 160 158 141 140 139 133 123 116 122 128 127 117 98 86 75 67 64 65 63 62 62 67 73 76
113 137 152 142 122 108 117 118 96 118 170 170 156 154 152 157 164 168 167 169 165 157 163 167 165 154 155 147 146 145 140 134 119 125 126 122 113 101 95 86 79 69 66 68 65 68 72 76 76
103 136 111 120 107 107 100 106 121 121 139 142 141 146 155 162 171 172 166 161 160 159 161 161 159 159 148 137 151 147 148 145 144 140 136 134 128 121 107 98 89 84 79 80 75 73 76 76 78
148 128 104 127 121 113 110 98 94 144 134 130 140 154 164 167 168 166 162 162 170 171 169 160 159 162 150 147 150 146 148 144 137 135 138 138 134 130 118 103 92 86 88 90 90 88 86 79 82
109 77 20 346 149 136 109 57 99 161 138 136 148 162 169 173 163 167 174 175 180 176 168 160 159 155 151 149 147 146 146 137 129 130 132 136 133 130 123 109 96 95 97 95 92 83 78 77 78
58 75 342 295 189 170 120 178 236 170 145 155 163 166 170 176 176 176 170 170 178 170 161 159 155 153 158 153 143 136 134 125 121 124 126 130 130 127 119 111 107 104 98 96 93 86 83 73 73
35 90 247 288 245 147 130 192 228 174 150 160 173 176 172 171 175 180 170 169 170 164 159 152 147 157 152 139 130 117 113 111 114 119 124 129 127 125 120 115 115 109 95 89 100 87 98 94 85
230 229 253 258 275 125 132 186 200 172 155 163 173 178 169 174 191 183 176 170 160 154 154 151 154 142 134 123 109 95 88 85 98 111 126 131 127 126 122 119 118 113 98 89 93 95 80 99 110
175 141 193 256 234 112 140 188 222 200 166 167 179 181 190 198 202 180 168 163 144 143 148 155 155 148 138 133 130 125 127 110 82 103 128 133 132 132 129 128 121 117 115 122 117 107 89 72 95
138 124 257 298 230 135 149 240 241 199 196 189 185 191 198 189 150 171 167 165 165 164 160 163 164 157 153 161 158 149 143 135 145 101 105 126 133 136 139 138 137 132 125 119 120 120 113 89 99
197 180 208 236 342 40 97 336 299 276 176 168 174 180 187 185 179 177 174 175 164 174 175 173 176 169 165 157 129 110 86 68 60 50 78 129 137 136 143 146 137 141 142 145 151 147 140 149 32
251 232 198 197 78 269 159 265 280 250 223 208 201 182 189 183 168 162 170 171 173 188 174 161 169 172 173 158 152 153 155 169 190 182 194 185 128 130 139 145 143 147 146 149 164 151 149 148 164
226 224 189 199 165 309 296 168 279 278 230 231 212 194 189 165 158 159 166 177 182 176 159 159 161 171 177 166 165 164 165 183 181 162 169 169 149 139 148 147 147 153 155 164 167 154 157 163 168
118 44 26 38 68 306 242 168 270 250 215 203 198 183 171 151 145 149 143 132 134 131 131 144 142 162 172 170 170 165 168 167 158 169 178 189 179 191 173 151 154 163 165 173 175 170 166 177 173
74 78 29 0 11 263 259 144 242 244 204 183 180 176 160 141 135 133 125 136 144 139 139 144 142 139 157 163 176 173 173 171 174 181 189 187 188 194 200 175 173 180 183 177 166 168 182 180 176
182 141 157 203 224 274 342 205 253 257 199 169 160 154 143 141 142 145 151 156 159 155 152 146 145 143 138 146 177 172 178 183 187 186 184 192 199 201 193 182 178 184 185 178 168 168 198 183 186
156 186 181 157 196 229 282 280 320 359 62 108 131 137 149 160 158 157 157 152 151 155 153 155 146 135 135 141 158 172 178 180 186 194 193 200 207 199 183 173 172 179 183 179 172 177 197 178 183
161 163 100 121 170 256 283 240 228 226 214 173 157 160 167 168 166 162 158 157 158 161 160 149 140 149 150 135 140 165 175 180 183 176 186 201 211 197 171 175 179 182 182 177 168 186 203 162 181
115 106 116 128 151 158 238 268 236 196 193 186 179 174 169 170 171 170 168 167 161 147 133 133 142 140 142 148 137 105 98 125 127 137 183 196 200 190 180 179 174 173 174 166 160 181 166 172 192
165 159 136 144 236 171 178 262 284 187 183 171 175 179 169 172 174 169 163 153 143 138 133 133 136 132 169 170 138 129 118 104 109 127 162 164 178 190 188 176 166 172 173 166 165 179 176 179 186
Height
1512 1512 1511 1512 1515 1524 1527 1520 1515 1513 1513 1513 1512 1513 1517 1521 1524 1531 1528 1526 1527 1526 1526 1525 1524 1523 1520 1516 1514 1515 1517 1518 1519 1519 1518 1518 1518 1518 1518 1517 1517 1517 1517 1516 1516 1516 1516 1516 1516
1512 1511 1512 1512 1521 1534 1529 1518 1515 1512 1513 1514 1514 1516 1519 1522 1524 1525 1526 1527 1527 1527 1526 1526 1525 1523 1522 1519 1518 1517 1518 1519 1519 1519 1518 1518 1518 1518 1518 1518 1518 1518 1518 1518 1518 1518 1517 1517 1517
1512 1511 1512 1514 1523 1531 1526 1517 1513 1512 1512 1513 1516 1519 1521 1524 1525 1525 1526 1527 1528 1527 1527 1526 1526 1525 1523 1522 1521 1520 1520 1520 1520 1518 1516 1516 1518 1519 1519 1519 1519 1519 1519 1519 1519 1519 1519 1518 1518
1512 1513 1513 1519 1524 1520 1517 1515 1512 1512 1513 1514 1517 1521 1524 1526 1526 1526 1527 1528 1528 1528 1528 1527 1527 1526 1525 1525 1524 1523 1522 1522 1520 1517 1514 1514 1517 1519 1520 1520 1521 1521 1520 1520 1520 1520 1520 1520 1519
1511 1512 1518 1524 1522 1517 1514 1513 1512 1512 1514 1516 1517 1522 1525 1527 1527 1527 1528 1528 1528 1528 1528 1528 1528 1527 1527 1526 1526 1525 1524 1523 1522 1519 1516 1516 1518 1521 1521 1522 1522 1522 1522 1521 1521 1521 1521 1521 1521
1512 1513 1526 1529 1523 1517 1514 1513 1513 1513 1516 1517 1519 1523 1526 1528 1527 1528 1528 1529 1529 1529 1529 1529 1529 1528 1528 1528 1527 1527 1526 1525 1524 1522 1521 1521 1522 1523 1523 1523 1524 1524 1523 1523 1523 1523 1523 1523 1523
1513 1517 1524 1524 1523 1519 1515 1513 1513 1514 1516 1518 1519 1523 1526 1528 1528 1529 1529 1530 1530 1530 1530 1530 1530 1529 1529 1529 1529 1528 1528 1527 1527 1526 1525 1524 1525 1525 1525 1525 1525 1525 1525 1525 1525 1525 1525 1525 1524
1511 1516 1522 1523 1522 1519 1514 1513 1514 1515 1517 1519 1519 1521 1525 1527 1528 1529 1530 1530 1531 1531 1531 1531 1531 1531 1531 1530 1530 1530 1529 1529 1528 1528 1527 1527 1527 1527 1527 1528 1528 1527 1527 1527 1527 1527 1526 1526 1526
1511 1520 1526 1521 1519 1517 1513 1513 1515 1516 1517 1518 1520 1521 1523 1526 1528 1529 1530 1530 1531 1531 1532 1532 1532 1532 1532 1531 1531 1531 1531 1530 1530 1530 1529 1529 1529 1529 1529 1529 1529 1529 1529 1529 1529 1528 1528 1528 1528
1510 1521 1519 1514 1512 1513 1513 1514 1515 1517 1518 1520 1521 1522 1524 1525 1527 1528 1528 1529 1530 1531 1532 1532 1532 1532 1532 1532 1532 1532 1532 1532 1532 1531 1531 1531 1531 1531 1531 1531 1531 1531 1531 1531 1530 1530 1530 1530 1530
1509 1514 1512 1511 1510 1511 1513 1514 1515 1517 1520 1520 1520 1522 1524 1525 1527 1528 1528 1529 1530 1531 1532 1532 1533 1533 1533 1533 1533 1533 1533 1533 1533 1533 1533 1533 1533 1533 1533 1533 1533 1533 1533 1532 1532 1532 1532 1531 1531
1510 1510 1510 1510 1510 1511 1513 1514 1516 1517 1519 1519 1520 1521 1523 1525 1526 1527 1528 1529 1530 1531 1532 1532 1533 1533 1533 1533 1533 1533 1534 1534 1534 1534 1534 1534 1534 1534 1534 1534 1534 1534 1534 1534 1534 1533 1533 1533 1533
1510 1511 1511 1510 1511 1512 1513 1515 1516 1517 1518 1519 1520 1521 1522 1523 1525 1526 1528 1529 1530 1530 1531 1532 1532 1533 1534 1534 1534 1534 1534 1534 1534 1535 1535 1535 1535 1535 1535 1535 1536 1536 1535 1535 1535 1535 1535 1535 1535
1510 1510 1511 1511 1511 1512 1513 1516 1517 1519 1519 1519 1520 1521 1522 1523 1524 1526 1527 1528 1529 1530 1531 1531 1532 1533 1533 1534 1534 1534 1534 1535 1535 1535 1535 1536 1536 1536 1536 1536 1537 1537 1537 1537 1536 1536 1536 1536 1536
1510 1512 1513 1512 1511 1513 1514 1520 1519 1519 1519 1519 1520 1521 1522 1523 1524 1525 1526 1527 1528 1529 1530 1531 1532 1533 1533 1533 1534 1534 1535 1535 1535 1536 1536 1536 1537 1537 1537 1537 1537 1538 1538 1538 1538 1538 1538 1537 1538
1512 1517 1522 1515 1512 1513 1518 1527 1520 1519 1519 1519 1520 1520 1521 1522 1523 1524 1525 1526 1528 1529 1530 1531 1532 1532 1533 1533 1534 1534 1535 1535 1535 1536 1536 1537 1537 1537 1537 1538 1538 1538 1538 1538 1538 1539 1539 1539 1539
1520 1526 1525 1519 1513 1513 1518 1523 1519 1519 1518 1519 1519 1520 1520 1521 1523 1524 1524 1526 1527 1528 1529 1530 1531 1532 1532 1533 1533 1534 1534 1535 1535 1536 1536 1537 1537 1537 1538 1538 1538 1539 1539 1539 1539 1539 1539 1539 1539
1526 1525 1524 1522 1515 1515 1519 1521 1518 1518 1519 1519 1519 1520 1520 1521 1522 1523 1524 1525 1526 1527 1528 1529 1530 1531 1531 1532 1533 1534 1534 1535 1535 1536 1536 1537 1537 1537 1538 1538 1538 1539 1539 1539 1539 1539 1540 1540 1540
1517 1521 1523 1520 1514 1516 1520 1521 1519 1518 1518 1518 1519 1519 1520 1520 1522 1523 1523 1524 1525 1526 1527 1528 1529 1529 1530 1531 1531 1532 1533 1534 1534 1535 1536 1536 1537 1537 1537 1537 1538 1538 1539 1539 1539 1539 1539 1540 1540
1516 1521 1522 1518 1514 1516 1520 1521 1518 1516 1517 1516 1517 1518 1518 1519 1521 1522 1522 1523 1524 1525 1526 1527 1527 1528 1529 1529 1530 1530 1531 1532 1533 1534 1535 1535 1536 1536 1537 1537 1537 1538 1538 1538 1539 1539 1539 1539 1539
1516 1519 1520 1520 1516 1516 1520 1526 1521 1517 1516 1516 1516 1517 1517 1518 1519 1521 1522 1522 1524 1525 1526 1526 1527 1527 1528 1528 1529 1529 1530 1531 1532 1533 1534 1534 1535 1536 1536 1536 1537 1537 1537 1538 1538 1538 1538 1538 1539
1520 1512 1513 1515 1522 1529 1524 1538 1525 1519 1517 1516 1516 1516 1516 1517 1518 1520 1521 1522 1522 1524 1525 1525 1526 1527 1527 1527 1527 1527 1528 1529 1530 1531 1533 1534 1534 1535 1535 1536 1536 1536 1537 1537 1537 1537 1538 1537 1537
1512 1508 1511 1514 1520 1527 1526 1534 1530 1520 1520 1517 1516 1515 1515 1516 1517 1519 1520 1521 1522 1523 1524 1524 1525 1526 1526 1526 1526 1526 1527 1528 1529 1530 1531 1532 1533 1534 1534 1534 1535 1535 1536 1536 1536 1536 1536 1536 1537
1507 1511 1515 1520 1526 1537 1528 1533 1532 1523 1517 1515 1514 1514 1514 1515 1516 1518 1519 1520 1521 1522 1523 1523 1524 1524 1524 1524 1525 1525 1526 1526 1528 1529 1530 1531 1532 1532 1533 1533 1534 1534 1534 1534 1535 1535 1535 1535 1536
1511 1525 1539 1540 1545 1540 1525 1529 1529 1515 1511 1510 1511 1512 1513 1515 1516 1517 1518 1519 1520 1521 1521 1522 1522 1522 1523 1523 1523 1524 1524 1525 1526 1527 1528 1529 1530 1530 1531 1531 1532 1532 1533 1533 1533 1534 1534 1534 1534
1513 1522 1539 1545 1546 1539 1527 1530 1522 1511 1509 1509 1509 1511 1513 1514 1516 1517 1517 1518 1519 1520 1520 1521 1521 1521 1521 1521 1522 1522 1523 1524 1524 1525 1526 1527 1527 1528 1529 1529 1530 1530 1531 1532 1532 1532 1532 1533 1533
1513 1519 1519 1531 1532 1539 1535 1527 1518 1511 1511 1510 1510 1511 1513 1514 1515 1516 1517 1517 1518 1519 1519 1520 1520 1521 1520 1520 1521 1521 1521 1522 1522 1523 1524 1524 1525 1526 1527 1527 1528 1528 1529 1530 1530 1530 1530 1531 1531
1507 1512 1524 1530 1538 1544 1536 1531 1527 1517 1514 1512 1511 1511 1512 1514 1515 1516 1516 1517 1517 1518 1519 1519 1520 1520 1520 1520 1520 1520 1520 1520 1520 1520 1521 1522 1523 1524 1524 1525 1526 1526 1527 1528 1528 1528 1528 1529 1529
1511 1513 1519 1528 1532 1541 1543 1535 1513 1512 1510 1510 1510 1511 1511 1513 1514 1515 1516 1516 1517 1517 1518 1518 1519 1519 1519 1519 1519 1519 1519 1518 1519 1519 1520 1521 1521 1522 1522 1523 1523 1524 1524 1525 1525 1526 1526 1527 1527
1506 1510 1518 1530 1533 1534 1540 1534 1508 1507 1508 1509 1509 1510 1511 1512 1513 1514 1515 1515 1516 1516 1516 1517 1517 1517 1517 1517 1517 1517 1517 1517 1517 1517 1518 1518 1519 1519 1520 1520 1521 1521 1522 1522 1523 1523 1524 1524 1525